This is the latest recevied weather packets stored in our database for station/object KY4LEX. If no packets are shown the sender has not sent any weather packets the latest 10 day(s).
| Time | Temp. | Humidity | Pressure | Rain* | Wind** | Luminosity | Snow |
|---|---|---|---|---|---|---|---|
| 1778060000 | 13.89° C | 98% | 1012.2 hPa | 4.32 mm | - | 0 W/m² | - |
| 1778059698 | 13.89° C | 99% | 1012.4 hPa | 6.1 mm | - | 0 W/m² | - |
| 1778059396 | 13.89° C | 98% | 1012.5 hPa | 6.1 mm | - | 0 W/m² | - |
| 1778059092 | 14.44° C | 98% | 1012.9 hPa | 6.1 mm | - | 0 W/m² | - |
| 1778058790 | 14.44° C | 99% | 1012.9 hPa | 7.87 mm | - | 0 W/m² | - |
| 1778058488 | 14.44° C | 99% | 1012.6 hPa | 12.7 mm | - | 0 W/m² | - |
| 1778058184 | 15° C | 99% | 1012.6 hPa | 10.67 mm | - | 0 W/m² | - |
| 1778057881 | 15° C | 99% | 1012.3 hPa | 6.1 mm | - | 0 W/m² | - |
| 1778057577 | 15° C | 99% | 1012.1 hPa | 1.27 mm | - | 0 W/m² | - |
| 1778057274 | 15° C | 99% | 1012.2 hPa | 0 mm | - | 0 W/m² | - |
| 1778056971 | 15° C | 99% | 1012.2 hPa | 3.05 mm | - | 0 W/m² | - |
| 1778056668 | 15° C | 98% | 1011.7 hPa | 3.05 mm | - | 0 W/m² | - |
| 1778056365 | 15° C | 98% | 1011.6 hPa | 3.05 mm | - | 0 W/m² | - |
| 1778056063 | 15° C | 98% | 1011.7 hPa | 1.27 mm | - | 0 W/m² | - |
| 1778055758 | 15° C | 98% | 1011.7 hPa | 3.05 mm | - | 0 W/m² | - |
| 1778055456 | 15° C | 98% | 1011.6 hPa | 6.6 mm | - | 0 W/m² | - |
| 1778055153 | 15° C | 98% | 1011.4 hPa | 1.78 mm | - | 0 W/m² | - |
| 1778054851 | 15° C | 98% | 1011.4 hPa | 0 mm | - | 0 W/m² | - |
| 1778054547 | 15° C | 98% | 1011.5 hPa | 3.05 mm | - | 0 W/m² | - |
| 1778054245 | 15° C | 98% | 1011.5 hPa | 4.32 mm | - | 0 W/m² | - |
| 1778053942 | 15° C | 98% | 1011.7 hPa | 7.11 mm | - | 0 W/m² | - |
| 1778053640 | 15° C | 98% | 1011.4 hPa | 10.67 mm | - | 0 W/m² | - |
| 1778053336 | 15° C | 98% | 1011.4 hPa | 6.6 mm | - | 0 W/m² | - |
| 1778053034 | 15° C | 98% | 1011.4 hPa | 1.78 mm | - | 0 W/m² | - |
| 1778052731 | 15° C | 98% | 1011.6 hPa | 1.27 mm | - | 0 W/m² | - |
* Rain latest hour (hover to see other rain measurements)
** Current wind speed in m/s (hover to see current wind gust speed)